Probability
0 0 0 0 0 0 0 0 0 0 0 0 0 0 0 0 0 0 0 0 0 0 0 0 0 0 0 0 0 0 0 0 0 0 0 0 0 0 0 0 0 0 0 0
0 0 0 0 0 0 0 0 0 0 0 0 0 0 0 0 0 0 0 0 0 0 0 0 0 0 0 0 0 0 0 0 0 0 0 0 0 0 0 0 0 0 0 0
0 0 0 0 0 0 0 0 0 0 0 0 0 0 0 0 0 0 0 0 0 0 0 0 0 0 0 0 0 0 0 0 0 0 0 0 0 0 0 0 0 0 0 0
0 0 0 0 0 0 0 0 0 0 0 0 0 0 0 0 0 0 0 0 0 0 0 0 0 0 0 0 0 0 0 0 0 0 0 0 0 0 0 0 0 0 0 0
0 0 0 0 0 0 0 0 0 0 0 0 0 0 0 0 0 0 0 0 0 0 0 0 0 0 0 0 0 0 0 0 0 0 0 0 0 0 0 0 0 0 0 0
0 0 0 0 0 0 0 0 0 0 0 0 0 0 0 0 0 0 0 0 0 0 0 0 0 0 0 0 0 0 0 0 0 0 0 0 0 0 0 0 0 0 0 0
0 0 0 0 0 0 0 0 0 0 0 0 0 0 0 0 0 0 0 0 0 0 0 0 0 0 0 0 0 0 0 0 0 0 0 0 0 0 0 0 0 0 0 0
0 0 0 0 0 0 0 0 0 0 0 0 0 0 0 0 0 0 0 0 0 0 0 0 0 0 0 0 0 0 0 0 0 0 0 0 0 0 0 0 0 0 0 0
0 0 0 0 0 0 0 0 0 0 0 0 0 0 0 0 0 0 0 0 0 0 0 0 0 0 0 0 0 0 0 0 0 0 0 0 0 0 0 0 0 0 0 0
0 0 0 0 0 0 0 0 0 0 0 0 0 0 0 0 0 0 0 0 0 0 0 0 0 0 0 0 0 0 0 0 0 0 0 0 0 0 0 0 0 0 0 0
0 0 0 0 0 0 0 0 0 0 0 0 0 0 0 0 0 0 0 0 0 0 0 0 0 0 0 0 0 0 0 0 0 0 0 0 0 0 0 0 0 0 0 0
0 0 0 0 0 0 0 0 0 0 0 0 0 0 0 0 0 0 0 0 0 0 0 0 0 0 0 0 0 0 0 0 0 0 0 0 0 0 0 0 0 0 0 0
0 0 0 0 0 0 0 0 0 0 0 0 0 0 0 0 0 0 0 0 0 0 0 0 0 0 0 0 0 0 0 0 0 0 0 0 0 0 0 0 0 0 0 0
0 0 0 0 0 0 0 0 0 0 0 0 0 0 0 0 0 0 0 0 0 0 0 0 0 0 0 0 0 0 0 0 0 0 0 0 0 0 0 0 0 0 0 0
0 0 0 0 0 0 0 0 0 0 0 0 0 0 0 0 0 0 0 0 0 0 0 0 0 0 0 0 0 0 0 0 0 0 0 0 0 0 0 0 0 0 0 0
0 0 0 0 0 0 0 0 0 0 0 0 0 0 0 0 0 0 0 0 0 0 0 0 0 0 0 0 0 0 0 0 0 0 0 0 0 0 0 0 0 0 0 0
0 0 0 0 0 0 0 0 0 0 0 0 0 0 0 0 0 0 0 0 0 0 0 0 0 0 0 0 0 0 0 0 0 0 0 0 0 0 0 0 0 0 0 0
0 0 0 0 0 0 0 0 0 0 0 0 0 0 0 0 0 0 0 0 0 0 0 0 0 0 0 0 0 0 0 0 0 0 0 0 0 0 0 0 0 0 0 0
0 0 0 0 0 0 0 0 0 0 0 0 0 0 0 0 0 0 0 0 0 0 0 0 0 0 0 0 0 0 0 0 0 0 0 0 0 0 0 0 0 0 0 0
0 0 0 0 0 0 0 0 0 0 0 0 0 0 0 0 0 0 0 0 0 0 0 0 0 0 0 0 0 0 0 0 0 0 0 0 0 0 0 0 0 0 0 0
0 0 0 0 0 0 0 0 0 0 0 0 0 0 0 0 0 0 0 0 0 0 0 0 0 0 0 0 0 0 0 0 0 0 0 0 0 0 0 0 0 0 0 0
0 0 0 0 0 0 0 0 0 0 0 0 0 0 0 0 0 0 0 0 0 0 0 0 0 0 0 0 0 0 0 0 0 0 0 0 0 0 0 0 0 0 0 0
0 0 0 0 0 0 0 0 0 0 0 0 0 0 0 0 0 0 0 0 0 0 0 0 0 0 0 0 0 0 0 0 0 0 0 0 0 0 0 0 0 0 0 0
0 0 0 0 0 0 0 0 0 0 0 0 0 0 0 0 0 0 0 0 0 0 0 0 0 0 0 0 0 0 0 0 0 0 0 0 0 0 0 0 0 0 0 0
0 0 0 0 0 0 0 0 0 0 0 0 0 0 0 0 0 0 0 0 0 0 0 0 0 0 0 0 0 0 0 0 0 0 0 0 0 0 0 0 0 0 0 0
0 0 0 0 0 0 0 0 0 0 0 0 0 0 0 0 0 0 0 0 0 0 0 0 0 0 0 0 0 0 0 0 0 0 0 0 0 0 0 0 0 0 0 0
0 0 0 0 0 0 0 0 0 0 0 0 0 0 0 0 0 0 0 0 0 0 0 0 0 0 0 0 0 0 0 0 0 0 0 0 0 0 0 0 0 0 0 0
Wind_Speed
9 7 5 6 7 7 9 9 9 8 8 8 5 4 3 2 2 2 3 3 2 2 2 2 2 3 3 3 4 4 5 6 6 5 5 5 5 5 5 5 6 6 5 5
7 6 6 8 9 9 8 7 8 7 9 5 3 1 1 2 1 2 3 3 3 3 2 3 3 3 3 4 4 4 5 5 4 4 5 5 5 5 5 5 5 5 5 5
6 3 2 8 6 7 5 4 5 8 9 3 2 2 2 2 2 2 3 3 3 3 3 3 3 3 4 4 3 4 4 4 4 4 5 5 5 5 5 5 5 5 5 5
4 2 9 6 1 3 5 3 2 2 2 2 3 2 2 1 2 3 3 3 3 2 3 2 1 1 2 2 3 4 4 3 4 4 4 4 5 5 5 4 5 5 5 5
3 4 6 3 2 1 3 2 2 2 3 3 2 2 2 3 2 3 3 3 2 1 2 1 0 1 2 2 2 3 3 3 4 5 5 4 5 5 4 4 4 4 4 5
3 3 4 3 5 4 2 2 4 3 3 2 2 1 3 5 4 4 3 2 2 2 2 1 1 1 2 2 1 2 3 3 3 3 4 5 5 4 3 3 4 4 3 4
4 4 3 4 7 3 2 3 5 3 3 1 0 2 3 3 3 3 3 3 2 2 2 1 1 1 2 1 1 1 1 2 2 3 3 3 3 3 3 3 3 3 3 3
2 3 4 6 4 2 1 2 3 3 3 2 2 3 3 3 4 4 4 4 3 2 2 2 2 2 2 1 1 1 1 1 1 2 2 2 3 2 3 4 4 3 3 2
2 2 3 2 1 2 3 3 4 3 3 3 3 4 4 4 4 4 4 3 3 2 2 3 2 1 1 1 1 1 1 1 1 1 1 2 3 3 3 3 3 3 3 3
1 2 4 4 4 5 5 4 4 3 3 3 3 3 3 4 4 4 4 4 3 3 3 3 3 2 1 1 1 1 1 1 1 1 1 1 1 2 2 3 3 3 3 3
3 3 5 5 6 6 6 6 5 5 4 3 3 3 4 4 4 3 3 3 3 2 2 2 3 3 2 2 2 1 1 1 1 1 1 1 1 1 2 3 4 4 3 3
3 4 3 5 6 6 6 5 5 5 6 5 3 3 3 3 3 3 3 3 3 3 3 3 3 3 3 2 1 1 1 1 0 1 1 1 1 1 2 0 1 1 2 2
4 5 4 4 5 6 5 6 5 5 4 5 4 3 3 3 3 3 3 4 3 3 3 3 3 3 3 3 2 1 0 0 0 1 1 1 1 1 0 2 2 1 0 1
4 4 4 5 6 7 6 6 6 6 6 5 4 4 4 3 4 4 4 4 3 3 3 3 3 3 3 3 2 2 1 1 1 0 1 1 1 1 1 1 0 1 1 1
6 5 3 5 6 7 7 7 7 7 7 7 5 5 4 4 4 4 4 4 4 4 3 3 3 3 3 2 2 2 1 1 1 0 0 1 1 1 1 1 1 1 1 1
6 6 5 6 7 8 8 8 7 7 7 6 6 6 5 4 4 4 4 4 4 4 4 3 3 4 3 2 2 2 1 2 2 0 0 0 1 1 1 1 1 1 1 1
6 7 7 8 8 7 7 7 6 6 6 6 7 6 6 5 4 4 4 4 3 3 4 3 4 4 3 2 2 1 1 2 3 2 1 1 1 1 1 1 1 1 2 2
4 4 4 5 5 6 7 7 7 7 6 6 6 6 5 5 5 5 5 4 4 4 4 4 4 3 3 2 2 1 1 1 1 1 1 1 1 1 1 1 1 1 1 2
6 6 5 6 5 5 6 7 7 7 6 6 6 5 5 5 5 5 4 4 4 5 5 4 6 4 3 4 3 1 1 1 1 1 1 2 2 1 1 1 2 2 2 2
7 7 6 6 6 5 5 6 6 6 6 6 6 5 6 6 6 5 4 4 3 4 5 5 4 3 3 3 4 1 1 1 1 1 1 1 1 1 1 2 2 2 2 2
7 7 7 6 6 6 6 6 5 6 6 5 5 5 6 6 6 5 4 4 5 5 5 6 4 3 3 4 4 2 1 2 2 2 2 2 2 2 2 2 2 2 2 2
6 6 6 6 6 6 6 5 5 5 5 5 6 5 6 6 6 5 3 3 4 7 5 3 3 5 6 5 2 2 2 2 2 2 1 2 2 2 2 2 2 2 2 2
5 6 6 6 5 5 5 5 5 5 5 6 6 6 6 5 4 4 5 4 4 7 5 3 6 8 8 4 2 2 2 2 2 2 2 2 2 2 2 2 2 2 2 2
5 6 6 6 5 4 5 6 5 5 5 5 5 5 5 5 4 3 4 7 9 8 4 6 9 9 8 3 2 2 2 3 2 2 2 2 2 2 2 2 2 2 2 2
5 5 5 5 5 4 5 6 6 5 5 5 6 5 4 3 4 5 4 5 8 8 4 6 9 8 5 3 3 3 3 2 2 2 2 2 2 2 2 2 2 2 2 2
4 4 4 4 4 4 4 4 5 5 5 6 5 5 4 4 4 4 4 4 5 7 5 4 4 5 3 3 3 3 3 3 3 2 2 2 2 2 2 2 3 2 2 2
5 4 4 4 4 4 4 4 5 5 5 6 6 6 5 5 5 5 5 4 4 4 4 3 3 3 3 3 3 3 3 3 3 3 2 2 2 2 2 3 2 2 2 2
Wind_Direction
254 254 239 239 241 222 215 215 218 232 228 246 250 253 269 292 321 334 325 318 294 270 257 241 219 209 200 193 186 179 177 179 189 188 185 181 183 184 182 183 189 187 188 189
262 250 244 258 253 234 233 232 230 239 254 254 251 227 293 297 315 319 312 306 300 296 266 241 228 218 209 204 193 180 181 183 178 175 175 177 179 177 177 181 183 182 188 188
259 257 258 256 245 224 210 215 206 234 249 255 248 247 251 276 284 280 293 297 296 290 267 249 241 220 211 211 190 179 182 180 175 175 176 181 177 174 181 183 179 185 189 189
251 209 229 240 185 191 201 235 231 230 268 237 227 237 240 254 266 284 295 293 296 306 309 284 260 233 192 173 169 171 175 183 186 181 184 182 179 181 184 180 184 190 190 190
220 230 256 291 351 316 213 242 347 289 304 325 325 50 5 350 328 299 290 286 280 286 302 309 296 193 141 135 153 167 180 194 201 187 182 184 189 189 186 183 188 190 188 189
215 222 234 281 310 305 162 236 332 319 301 320 42 26 294 329 335 334 337 351 358 3 11 22 1 117 129 144 161 198 198 198 198 187 181 190 197 193 186 184 188 183 186 191
231 239 262 316 326 8 126 271 324 325 311 318 176 248 290 324 340 346 350 353 4 17 17 0 20 109 120 125 230 245 207 188 188 185 177 181 179 178 174 176 170 174 184 194
223 231 276 334 13 65 279 328 356 0 1 14 2 359 359 357 357 2 360 358 8 22 10 7 35 99 98 352 315 4 84 149 171 170 166 159 162 173 174 166 164 174 175 188
211 233 303 347 30 351 4 9 1 1 4 21 12 360 360 3 2 2 1 360 8 32 23 14 18 73 103 335 10 64 85 99 131 130 142 162 168 173 169 166 169 177 178 190
313 323 338 360 13 8 8 3 354 3 7 12 2 354 359 1 4 2 0 1 8 33 38 17 6 12 34 19 40 97 111 108 129 139 138 144 170 175 170 174 176 181 189 195
292 313 340 355 360 355 354 0 7 5 4 7 13 1 358 359 357 357 359 2 12 24 27 8 4 10 12 27 61 71 79 85 103 137 149 154 162 187 187 198 196 193 194 191
291 321 313 319 339 349 352 350 351 355 356 358 8 0 357 353 350 352 355 2 7 11 15 6 9 11 6 13 56 92 78 66 96 130 140 141 129 43 15 128 237 231 212 206
312 324 332 329 340 350 350 346 345 348 347 345 348 357 357 354 355 1 2 7 5 358 2 8 13 10 1 3 20 48 65 8 130 143 146 152 156 148 77 22 31 26 263 261
355 355 353 350 341 349 354 352 357 359 354 350 348 353 357 359 1 4 359 355 1 5 7 12 13 1 352 3 17 14 9 352 343 161 160 177 194 194 191 196 250 298 284 266
357 360 343 341 355 358 360 3 6 1 358 357 358 359 0 360 355 351 351 356 5 6 4 4 1 345 344 359 8 356 353 343 334 196 166 177 185 187 192 205 215 240 274 273
344 358 5 6 1 359 1 2 0 354 353 354 354 352 351 352 351 350 351 357 359 349 345 348 339 330 333 346 353 348 339 331 341 332 205 193 186 188 196 205 217 224 241 248
0 356 353 354 353 354 354 353 350 345 347 350 346 346 351 355 355 354 349 348 345 334 331 331 325 330 337 340 339 328 330 332 338 342 306 253 228 225 226 225 233 240 246 250
347 338 339 342 343 345 347 350 348 345 343 341 345 350 352 349 340 334 333 338 345 344 336 331 336 341 343 340 331 316 312 305 313 312 305 288 274 249 241 243 248 257 268 274
356 355 353 354 352 348 345 343 341 340 342 348 352 348 345 342 336 329 331 340 339 334 331 336 341 350 341 331 332 325 325 319 318 314 305 299 309 282 260 254 253 252 257 262
355 354 352 351 353 352 345 339 337 342 346 348 348 348 348 346 344 339 336 330 320 310 316 329 337 338 330 322 329 327 328 317 307 305 306 282 274 274 266 261 257 254 255 254
346 346 347 346 344 343 341 337 339 339 340 345 345 341 338 337 338 339 339 329 326 331 336 340 341 328 321 321 328 332 318 304 299 295 292 288 283 278 272 267 266 267 264 264
339 340 340 340 340 337 335 336 336 336 340 341 341 340 339 338 338 336 330 314 320 332 338 330 324 323 328 333 333 322 310 303 300 298 294 292 286 283 282 280 279 278 274 271
333 335 334 333 332 328 332 337 338 339 338 337 336 336 334 329 327 328 325 330 328 331 334 320 323 330 334 345 339 329 320 310 305 305 304 300 297 294 292 289 284 281 278 280
333 335 332 330 333 341 342 338 338 337 331 327 329 332 331 328 325 321 314 324 332 332 332 328 335 338 345 353 340 329 318 311 306 300 298 295 292 291 290 289 289 288 282 279
335 334 333 336 340 337 333 333 335 336 334 332 333 333 330 322 316 319 320 321 328 333 331 331 336 340 345 333 326 317 310 303 299 297 294 296 294 291 287 282 277 278 276 273
335 332 328 327 325 327 333 336 335 334 333 331 330 330 330 327 322 320 320 321 322 328 329 322 324 331 329 322 317 314 311 312 317 316 303 295 290 288 286 285 284 278 275 273
332 331 331 336 341 341 337 334 331 329 329 326 323 326 329 329 329 328 327 324 324 324 320 320 321 319 315 313 311 308 305 302 301 301 298 293 288 284 281 277 275 273 271 267